DateTimeUTC,F1_A11,F1_S11,BsB_S11,BsG_S11,BsR_S11,BbsB_S11,BbsG_S11,BbsR_S11,BaB_A11,BaG_A11,BaR_A11,Tu_S11,T_S11,Uu_S11,U_S11,P_S11,T1_A11
2021-02-10T17:00:00Z,00000200,21000000,,,,,,,-000.24,-000.26,-000.07,15.9,23.3,,00.0,0638.4,31.0
2021-02-10T17:01:00Z,00000200,21000000,,,,,,,0000.05,0000.29,0000.11,15.9,23.3,,00.0,0638.4,31.0
2021-02-10T17:02:00Z,00000200,21000000,,,,,,,-000.28,-000.08,-000.13,15.8,23.3,,00.0,0638.4,30.9
2021-02-10T17:03:00Z,00000200,61000000,,,,,,,0000.65,0000.32,0000.26,15.8,23.3,,00.0,0638.4,30.9
2021-02-10T17:04:00Z,00000200,41000000,-000.50,0000.61,0000.05,0000.55,0000.20,0000.10,-000.09,-000.11,0000.01,15.9,23.0,,00.0,0639.2,30.9
2021-02-10T17:05:00Z,00000200,01000000,0000.27,0000.10,0000.29,-000.13,0000.35,0000.09,0000.05,-000.28,0000.02,15.9,23.0,,00.0,0639.2,30.9
2021-02-10T17:06:00Z,00000200,01000000,0000.43,0000.07,-000.19,0000.37,-000.12,0000.05,0000.07,0000.07,0000.09,15.9,23.0,,00.0,0639.2,30.9
2021-02-10T17:07:00Z,00000200,01000000,0000.02,-000.11,0000.17,0000.40,0000.12,0000.08,0000.27,0000.36,0000.13,15.9,22.9,,00.0,0639.2,30.9
2021-02-10T17:08:00Z,00000200,01000000,0000.59,-000.18,0000.15,0000.45,-000.18,0000.12,0000.05,0000.02,0000.03,16.0,23.0,,00.0,0639.2,30.9
2021-02-10T17:09:00Z,00000200,01000000,0001.04,0000.03,-000.11,0000.36,0000.26,0000.07,0000.17,0000.22,-000.10,16.1,23.0,,00.0,0639.2,30.9
2021-02-10T17:10:00Z,00000200,01000000,0000.38,-000.01,0000.07,0000.02,-000.08,0000.05,0000.24,0000.05,0000.18,16.1,23.0,,00.0,0639.2,30.9
2021-02-10T17:11:00Z,00000200,01000000,0000.31,0000.17,0000.16,0000.34,-000.21,-000.01,-000.23,0000.02,0000.32,16.2,23.1,,00.0,0639.2,31.0
2021-02-10T17:12:00Z,00000200,01000000,0000.72,-000.16,0000.12,-000.48,0000.10,0000.07,0000.05,0000.33,-000.19,16.3,23.1,,00.0,0639.2,30.9
2021-02-10T17:13:00Z,00000200,01000000,0000.68,0000.14,0000.23,-000.19,0000.15,0000.02,0000.08,-000.21,-000.12,16.2,23.0,,00.0,0639.2,31.0
2021-02-10T17:14:00Z,00000200,01000000,0000.76,0000.32,0000.14,0000.33,-000.22,0000.20,-000.07,0000.20,0000.19,16.2,23.0,,00.0,0639.2,30.9
2021-02-10T17:15:00Z,00000200,01000000,0000.43,0000.27,0000.03,0000.19,0000.05,-000.16,0000.16,0000.11,-000.19,16.1,23.0,,00.0,0639.2,30.9
2021-02-10T17:16:00Z,00000200,01000000,0000.30,0000.10,0000.21,0000.39,-000.05,0000.18,0000.18,-000.28,0000.28,16.1,23.0,,00.0,0639.1,30.9
2021-02-10T17:17:00Z,00000200,01000000,0000.15,0000.45,0000.21,0000.29,0000.01,0000.11,-000.08,0000.26,-000.06,16.1,23.0,,00.0,0639.1,30.9
2021-02-10T17:18:00Z,00000200,01000000,0000.09,0000.08,-000.17,-000.13,-000.01,-000.05,-000.09,0000.07,-000.00,16.0,22.9,,00.0,0639.2,30.9
2021-02-10T17:19:00Z,00000200,01000000,0000.26,0000.01,-000.01,0000.26,0000.08,0000.13,0000.25,-000.35,0000.13,16.0,22.9,,00.0,0639.2,30.9
2021-02-10T17:20:00Z,00000200,01000000,0000.52,0000.33,-000.06,0000.28,0000.08,0000.06,0000.03,0000.19,-000.22,15.9,22.9,,00.0,0639.1,30.9
2021-02-10T17:21:00Z,00000200,01000000,0000.48,0000.40,0000.22,0000.24,-000.07,0000.16,0000.16,0000.00,0000.26,15.9,22.9,,00.0,0639.1,30.9
2021-02-10T17:22:00Z,00000200,01000000,0000.30,0000.06,-000.10,-000.16,-000.12,-000.11,0000.17,0000.19,0000.22,15.9,22.9,,00.0,0639.0,30.9
2021-02-10T17:23:00Z,00000200,01000000,0000.97,0000.30,0000.03,0000.61,0000.01,0000.07,0000.05,0000.25,-000.01,16.0,22.9,,00.0,0639.0,30.9
2021-02-10T17:24:00Z,00000200,01000000,0000.17,0000.29,0000.34,0000.26,0000.16,0000.10,0000.18,0000.11,0000.32,16.0,22.9,,00.0,0639.0,30.9
2021-02-10T17:25:00Z,00000200,01000000,-000.34,0000.11,-000.15,0000.23,-000.06,-000.09,-000.18,-000.04,-000.21,16.1,23.0,,00.0,0639.0,30.9
2021-02-10T17:26:00Z,00000200,01000000,0000.89,0000.02,-000.11,0000.50,0000.18,-000.08,0000.09,-000.10,-000.30,16.2,23.0,,00.0,0639.0,31.0
2021-02-10T17:27:00Z,00000200,01000000,0000.06,0000.15,-000.08,0000.18,-000.07,0000.10,-000.08,0000.21,0000.23,16.2,23.0,,00.0,0639.0,31.0
2021-02-10T17:28:00Z,00000200,01000000,0000.26,-000.03,0000.06,0000.11,-000.06,0000.20,0000.09,-000.18,-000.43,16.2,23.0,,00.0,0639.0,30.9
2021-02-10T17:29:00Z,00000200,01000000,0000.71,0000.55,0000.06,0000.43,-000.16,0000.01,0000.09,0000.26,0000.47,16.1,23.0,,00.0,0639.0,30.9
2021-02-10T17:30:00Z,00000200,01000000,0000.15,0000.08,0000.16,-000.03,0000.01,0000.25,0000.17,-000.30,-000.09,16.0,22.9,,00.0,0639.0,30.9
2021-02-10T17:31:00Z,00000200,01000000,0000.20,0000.13,0000.17,-000.05,-000.10,0000.01,-000.19,0000.11,-000.18,16.0,22.9,,00.0,0638.9,30.9
2021-02-10T17:32:00Z,00000200,01000000,0000.14,-000.06,0000.09,-000.05,0000.08,-000.04,0000.41,0000.13,0000.28,15.9,22.9,,00.0,0638.9,30.9
2021-02-10T17:33:00Z,00000200,01000000,0000.64,0000.19,0000.34,0000.46,0000.17,0000.22,0000.00,-000.27,-000.22,15.8,22.8,,00.0,0638.9,30.9
2021-02-10T17:34:00Z,00000200,01000000,0000.06,0000.15,0000.08,0000.24,0000.14,0000.34,-000.08,0000.46,0000.37,15.7,22.8,,00.0,0638.9,30.9
2021-02-10T17:35:00Z,00000200,01000000,0000.82,0000.29,0000.21,-000.44,-000.03,0000.06,0000.09,-000.18,-000.14,15.7,22.7,,00.0,0638.9,30.8
2021-02-10T17:36:00Z,00000200,01000000,0000.85,0000.10,-000.30,0000.38,0000.20,-000.23,0000.23,0000.24,0000.24,15.7,22.7,,00.0,0638.8,30.8
2021-02-10T17:37:00Z,00000200,01000000,0000.04,0000.11,0000.34,0000.51,0000.11,0000.20,0000.19,0000.07,0000.34,15.7,22.7,,00.0,0638.8,30.9
2021-02-10T17:38:00Z,00000200,01000000,0000.23,0000.31,0000.24,-000.43,-000.11,0000.02,0000.42,0000.63,-000.05,15.8,22.7,,00.0,0638.7,30.9
2021-02-10T17:39:00Z,00000200,01000000,0001.15,0000.35,0000.08,0000.53,0000.36,-000.05,-000.16,0000.21,0000.42,15.8,22.8,,00.0,0638.7,30.9
2021-02-10T17:40:00Z,00000200,01000000,0000.48,0000.24,-000.13,-000.38,-000.02,-000.20,0000.27,-000.03,-000.06,15.9,22.8,,00.0,0638.7,30.9
2021-02-10T17:41:00Z,00000200,01000000,0000.39,0000.24,0000.17,-000.18,0000.26,0000.02,-000.10,-000.03,-000.10,15.9,22.8,,00.0,0638.7,30.9
2021-02-10T17:42:00Z,00000200,01000000,0000.57,0000.04,-000.09,0000.04,-000.01,-000.19,0000.27,0000.25,0000.22,16.0,22.9,,00.0,0638.7,30.9
2021-02-10T17:43:00Z,00000200,01000000,0000.45,0000.28,0000.08,0000.37,0000.18,-000.00,0000.05,-000.24,-000.23,16.1,22.9,,00.0,0638.7,30.9
2021-02-10T17:44:00Z,00000200,01000000,0000.36,0000.59,0000.00,0000.06,0000.16,0000.01,0000.02,-000.31,-000.09,16.1,22.9,,00.0,0638.7,30.9
2021-02-10T17:45:00Z,00000200,01000000,0000.49,0000.43,0000.31,0000.17,-000.22,0000.30,-000.37,0000.01,-000.21,16.1,22.9,,00.0,0638.7,30.9
2021-02-10T17:46:00Z,00000200,01000000,-000.04,0000.15,0000.17,0000.37,0000.20,0000.18,0000.15,0000.28,0000.28,16.0,22.9,,00.0,0638.7,30.9
2021-02-10T17:47:00Z,00000200,01000000,0000.32,0000.55,0000.14,0000.08,-000.01,0000.04,-000.10,-000.11,-000.09,16.0,22.9,,00.0,0638.8,30.9
2021-02-10T17:48:00Z,00000200,01000000,0001.35,0000.05,0000.03,0000.26,0000.24,-000.05,-000.09,0000.12,0000.16,15.9,22.8,,00.0,0638.8,30.9
2021-02-10T17:49:00Z,00000200,01000000,0000.23,0000.45,0000.14,0000.38,-000.09,0000.32,0000.03,0000.28,-000.19,15.9,22.8,,00.0,0638.8,30.9
2021-02-10T17:50:00Z,00000200,01000000,0009.16,0008.69,0007.98,0001.31,0001.23,0001.08,0013.52,0012.23,0011.55,15.9,22.8,,00.0,0631.7,30.9
2021-02-10T17:51:00Z,00000200,01000000,0014.31,0016.28,0015.71,0002.35,0002.93,0002.86,0046.08,0046.33,0045.75,15.9,22.8,,00.0,0619.9,30.9
2021-02-10T17:52:00Z,00000200,01000000,0023.87,0026.47,0027.30,0004.42,0005.53,0005.53,0091.47,0093.06,0096.60,15.9,22.8,,00.0,0616.8,30.9
2021-02-10T17:53:00Z,00000200,01000000,0002.33,0002.81,0002.14,0000.46,0000.70,0000.50,0008.55,0008.83,0008.49,16.0,22.8,,00.0,0616.7,31.0
2021-02-10T17:54:00Z,00000200,01000000,-000.04,0000.47,0000.46,-000.28,0000.06,0000.00,-000.27,-000.34,0000.01,16.0,22.9,,00.0,0616.9,31.0
2021-02-10T17:55:00Z,00000200,01000000,-000.10,0000.39,-000.24,-000.08,0000.32,-000.13,0001.88,0001.69,0001.19,16.1,22.9,,00.0,0617.1,31.0
2021-02-10T17:56:00Z,00000200,01000000,0000.11,0000.62,0000.40,0000.39,-000.07,-000.16,0000.00,0000.41,0000.41,16.2,22.9,,00.0,0617.2,31.0
2021-02-10T17:57:00Z,00000200,41000000,,,,,,,0000.76,0000.73,0000.95,16.3,23.0,,00.0,0617.2,31.0
2021-02-10T17:58:00Z,00000200,61000000,,,,,,,-000.31,-000.54,-000.51,15.9,23.0,,00.0,0616.4,31.0
2021-02-10T17:59:00Z,00000200,21000000,,,,,,,-000.55,-000.51,-000.62,15.8,23.1,,00.0,0616.3,31.0
